Location: Kawakawa
(35.3830°S, 174.0670°E)
Time: 13:00:14
(UTC+13:00)

Tiros 1 despin weight - Visible Passes

Search period start: 11 December 2019 00:00
Search period end: 21 December 2019 00:00
Orbit: 594 x 642 km, 48.2° (Epoch: 10 December)

Date Brightness Start Highest point End Pass type
(mag) Time Alt. Az. Time Alt. Az. Time Alt. Az.
11 Dec ? 22:20:29 10° SW 22:24:16 23° SSE 22:28:03 10° ESE visible
12 Dec ? 00:01:41 10° SW 00:05:08 47° SW 00:05:08 47° SW visible
12 Dec ? 22:36:55 10° SW 22:41:11 32° SSE 22:43:32 21° ESE visible
13 Dec ? 00:18:19 10° WSW 00:20:34 27° WSW 00:20:34 27° WSW visible
13 Dec ? 21:12:06 10° SW 21:15:35 20° SSE 21:19:03 10° ESE visible
13 Dec ? 22:53:19 10° SW 22:57:58 53° SSE 22:59:01 43° ESE visible
14 Dec ? 00:35:19 10° WSW 00:36:03 14° W 00:36:03 14° W visible
14 Dec ? 21:28:36 10° SW 21:32:34 26° SSE 21:36:33 10° ESE visible
14 Dec ? 23:09:50 10° SW 23:14:33 85° NW 23:14:33 85° NW visible
15 Dec ? 21:45:00 10° SW 21:49:26 39° SSE 21:53:06 14° E visible
15 Dec ? 23:26:36 10° WSW 23:30:09 38° WNW 23:30:09 38° WNW visible
16 Dec ? 22:01:26 10° SW 22:06:08 68° SE 22:08:45 26° ENE visible
16 Dec ? 23:43:52 10° W 23:45:48 18° WNW 23:45:48 18° WNW visible
17 Dec ? 22:18:02 10° WSW 22:22:42 64° NW 22:24:27 36° NNE visible
18 Dec ? 22:34:57 10° WSW 22:39:06 31° NW 22:40:13 28° NNW visible
19 Dec ? 21:09:34 10° SW 21:14:17 87° SE 21:19:00 10° NE visible
19 Dec ? 22:52:42 10° W 22:55:22 15° NW 22:56:04 15° NW visible
20 Dec ? 21:26:17 10° WSW 21:30:47 47° NW 21:34:54 12° NNE visible
